Flag for Bolivia Weather past 2 weeks in Tarija, Bolivia

Now
46 °F

Clear.


Feels Like: 44 °F
Forecast: 44 / 84 °F
Wind: 6 mph from South

Location: Tarija Airport

Current Time: Jul 31, 2015 at 5:29:52 AM

Latest Report: Jul 31, 2015 at 5:00 AM


Visibility: N/A

Pressure: 30.01 "Hg (23.90 "Hg at 1874m altitude)

Humidity: 87%

Dew point: 43 °F

Location of TarijaLocation

Historic Weather in Tarija — Graph

°F

Tarija temperature yesterday

Maximum temperature yesterday: 86 °F (at 4:00 PM)
Minimum temperature yesterday: 46 °F (at 6:00 AM)
Average temperature yesterday: 66 °F

Past Weeks' High & Low Weather Summary

 TemperatureHumidityPressure
High91 °F (Jul 19, 3:00 PM)100% (Jul 16, 8:00 AM)30.39 "Hg (Jul 16, 8:00 AM)
Low30 °F (Jul 16, 7:00 AM)12% (Jul 19, 4:00 PM)29.83 "Hg (Jul 19, 4:00 PM)
Average58 °F57%30.12 "Hg
* Reported Jul 15 10:00 PM — Jul 30 10:00 PM, Tarija, Weather by CustomWeather, © 2015

Note: Actual official high and low records may vary slightly from our data, if they occured in-between our weather recording intervals... More about our weather records

Advertising

Tarija weather history for previous 24 hours

 ConditionsComfort  
Time TempWeatherWind HumidityBarometerVisibility
10:00 PM
Thu, Jul 30
63 °FClear.No wind73%30.01 "HgN/A
9:00 PM64 °FClear.No wind73%29.98 "HgN/A
8:00 PM64 °FClear.6 mph73%29.95 "HgN/A
7:00 PM66 °FClear.No wind68%29.92 "HgN/A
6:00 PM73 °FClear.8 mph53%29.89 "HgN/A
5:00 PM81 °FClear.17 mph42%29.86 "HgN/A
4:00 PM86 °FClear.8 mph38%29.89 "HgN/A
3:00 PM84 °FClear.5 mph40%29.92 "HgN/A
2:00 PM81 °FClear.No wind45%29.95 "HgN/A
1:00 PM79 °FClear.No wind48%30.01 "HgN/A
12:00 PM75 °FClear.No wind50%30.04 "HgN/A
11:00 AM70 °FClear.No wind60%30.09 "HgN/A
10:00 AM64 °FClear.No wind68%30.12 "HgN/A
9:00 AM57 °FClear.No wind82%30.15 "HgN/A
8:00 AM48 °FClear.No wind100%30.15 "HgN/A
7:00 AM46 °FClear.No wind93%30.12 "HgN/A
6:00 AM46 °FClear.No wind87%30.12 "HgN/A
5:00 AM48 °FClear.No wind82%30.12 "HgN/A
Weather by CustomWeather, © 2015

See weather overviewHow to use our weather pages